Location: Friaudour
(46.0460°N, 1.2873°E)
Time: 08:21:15
(UTC+00:00)

Cosmos 2322 Rocket - Pass Details

Date: 14 July 2020
Orbit: 832 x 851 km, 71.0° (Epoch: 15 August)

Event Time Altitude Azimuth Distance (km) Brightness Sun altitude
Rises 02:43:17 0° 338° (NNW) 3,405 5.8 -13.0°
Reaches altitude 10° 02:45:58 10° 348° (NNW) 2,470 5.2 -12.7°
Maximum altitude 02:51:05 34° 53° (NE) 1,371 4.1 -12.1°
Drops below altitude 10° 02:56:12 10° 117° (ESE) 2,469 4.8 -11.5°
Sets 02:58:53 0° 127° (SE) 3,403 5.4 -11.2°
